Showing default

ASIASAT 6, 40141

Orbit data source: Space-Track

ASIASAT 6, 40141 is a payload satellite owned by Asiasat (HK) in GEO that was launched on Sun, 07 Sep 2014 UTC via an FALCON 9 launch vehicle from the Air Force Eastern Test Range (AFETR). Payload-class satellites include a variety of spacecraft equipped with specific instruments for various scientific and technological missions. These include communications satellites like Starlink; space stations such as the ISS; scientific satellites like the Hubble; Earth observation satellites from companies like Planet Labs, Umbra, and HawkEye 360; GPS; miniature CubeSats for education and research; and military/defense satellites.

Not visible in the next 10 days
Identifier
40141, 2014-052A
Orbit
GEO
Country
Flag of ACAC
Related business
Manufacturer
SS/Loral (MDA)
Mission
Operational Commercial Communications
Bus & Motor
LS-1300, R-4D
Mass
~3,700 kg wet, ~2,500 kg dry
Launch date (UTC)
2014-09-07 (12 years ago)
Launch vehicle
FALCON 9
Launch site
Air Force Eastern Test Range (AFETR)
Object type
Payload
Rocket body
Debris
Shape & HBR
Box + 2 Pan, 13.5 m
Radar Cross Section
26.964 m², Large (>1 m²)

Expand to show TLE details & history
Last TLE update: 21 hours ago

TLE from 21 hours ago
0 ASIASAT 6
1 40141U 14052A   26172.55637684 -.00000363  00000-0  00000+0 0  9996
2 40141   0.0406  85.5918 0000873  13.7399 130.6248  1.00271631 43123
Epoch: 2026-06-21T13:21Z
TLE epoch observation values (Epoch: 2026-06-21T13:21:10.958Z)
Latitude
0.00801°
Longitude
119.92425°
Altitude
35,788.538 km
Speed
3.075 km/s
True Right ascension
15h 19m 53s
True Declination
0° 00' 29"
Sunlit
Object was in daylight at epoch
Visualization orbit readout
Latitude
Unknown
Longitude
Unknown
Altitude
Unknown
Speed
Unknown
Apparent Right ascension
Unknown
Apparent Declination
Unknown
Sunlit
N/A
Visualization observer readout
Local Sidereal Time
21:36:36
Azimuth
Unknown
Elevation
Unknown
Doppler factor
Unknown
Orbital elements
Apogee altitude
35,791.39 km
Perigee altitude
35,784.027 km
Semi-major axis
42,165.846 km
Eccentricity
0.00009
Inclination
0.0406°
RAAN
85.5918°
Arg. of periapsis
13.7399°
True anomaly
130.63239°
Mean anomaly
130.6248°
Eccentric anomaly
130.6286°
Mean motion
0.25067 °/min
Orbital period
1,436.15 mins
BSTAR
0
Loading maneuver chart data...
Computing Atmospheric mass density...
Loading historical data...
Loading historical data...
Loading historical data...
Loading historical data...
Loading historical data...
Loading historical data...
Loading historical data...
Other satellites on launch #52 in the year 2014 (2014-09-07 UTC)

Documentation

Showing up to 5 results
|